Location: Ambrosina
(19.9365°S, 43.9833°W)
Time: 01:10:46
(UTC+00:00)

Cosmos 1633 - Pass Details

Date: 11 May 2021
Orbit: 460 x 478 km, 82.5° (Epoch: 20 June)

Event Time Altitude Azimuth Distance (km) Brightness Sun altitude
Rises 21:02:35 0° 18° (NNE) 2,468 6.1 -8.4°
Reaches altitude 10° 21:04:52 10° 31° (NNE) 1,603 5.0 -8.9°
Maximum altitude 21:07:49 25° 89° (E) 966 3.5 -9.6°
Drops below altitude 10° 21:10:47 10° 146° (SE) 1,626 4.8 -10.2°
Enters shadow 21:11:33 - 151° (SSE) 1,907 5.2 -10.4°
